TimeEDT,TemperatureF,Dew PointF,Humidity,Sea Level PressureIn,VisibilityMPH,Wind Direction,Wind SpeedMPH,Gust SpeedMPH,PrecipitationIn,Events,Conditions,WindDirDegrees,DateUTC
12:54 AM,75.0,69.1,82,29.82,10.0,Calm,Calm,-,N/A,,Mostly Cloudy,0,2013-06-27 04:54:00
1:54 AM,72.0,69.1,91,29.81,10.0,Calm,Calm,-,N/A,,Clear,0,2013-06-27 05:54:00
2:54 AM,71.1,68.0,90,29.80,8.0,Calm,Calm,-,N/A,,Clear,0,2013-06-27 06:54:00
3:54 AM,70.0,68.0,93,29.80,8.0,Calm,Calm,-,N/A,,Clear,0,2013-06-27 07:54:00
4:54 AM,70.0,68.0,93,29.81,7.0,Calm,Calm,-,N/A,,Clear,0,2013-06-27 08:54:00
5:54 AM,69.1,66.9,93,29.81,4.0,Calm,Calm,-,N/A,,Clear,0,2013-06-27 09:54:00
6:05 AM,69.8,66.2,88,29.80,2.0,Calm,Calm,-,N/A,,Clear,0,2013-06-27 10:05:00
6:54 AM,71.1,69.1,93,29.81,2.0,Calm,Calm,-,N/A,,Clear,0,2013-06-27 10:54:00
7:01 AM,71.6,69.8,94,29.80,3.0,Calm,Calm,-,N/A,,Clear,0,2013-06-27 11:01:00
7:54 AM,75.0,70.0,84,29.81,3.0,Calm,Calm,-,N/A,,Haze,0,2013-06-27 11:54:00
8:54 AM,78.1,71.1,79,29.79,3.0,Calm,Calm,-,N/A,,Clear,0,2013-06-27 12:54:00
9:54 AM,81.0,70.0,69,29.78,7.0,ESE,4.6,-,N/A,,Scattered Clouds,120,2013-06-27 13:54:00
10:54 AM,82.9,68.0,60,29.76,10.0,SE,5.8,-,N/A,,Clear,140,2013-06-27 14:54:00
11:54 AM,84.9,69.1,59,29.75,10.0,SSE,3.5,-,N/A,,Partly Cloudy,160,2013-06-27 15:54:00
12:54 PM,86.0,69.1,57,29.73,10.0,South,9.2,-,N/A,,Scattered Clouds,180,2013-06-27 16:54:00
1:54 PM,86.0,69.1,57,29.70,10.0,SE,6.9,-,N/A,,Mostly Cloudy,130,2013-06-27 17:54:00
2:54 PM,87.1,69.1,55,29.67,10.0,SSE,6.9,-,N/A,,Scattered Clouds,160,2013-06-27 18:54:00
3:54 PM,87.1,70.0,57,29.63,10.0,East,11.5,17.3,N/A,,Scattered Clouds,100,2013-06-27 19:54:00
4:54 PM,82.9,70.0,65,29.61,10.0,SE,12.7,16.1,0.00,Rain,Light Rain,140,2013-06-27 20:54:00
5:54 PM,75.9,73.0,91,29.60,5.0,WSW,5.8,-,0.04,Rain,Light Rain,240,2013-06-27 21:54:00
6:02 PM,75.2,73.4,94,29.59,1.8,SW,6.9,-,0.09,Rain,Heavy Rain,230,2013-06-27 22:02:00
6:13 PM,75.2,73.4,94,29.59,3.0,South,5.8,-,0.13,Rain,Rain,190,2013-06-27 22:13:00
6:26 PM,75.2,73.4,94,29.59,1.8,SSE,13.8,-,0.29,Rain,Heavy Rain,160,2013-06-27 22:26:00
6:37 PM,73.4,71.6,94,29.58,1.5,SSE,5.8,-,0.42,Rain,Heavy Rain,150,2013-06-27 22:37:00
6:54 PM,73.0,72.0,96,29.59,1.5,Calm,Calm,-,0.61,Rain,Heavy Rain,0,2013-06-27 22:54:00
7:00 PM,73.4,71.6,94,29.58,3.0,SSW,4.6,-,0.01,Rain,Rain,210,2013-06-27 23:00:00
7:25 PM,73.4,71.6,94,29.57,6.0,West,5.8,-,0.03,Rain,Rain,270,2013-06-27 23:25:00
7:36 PM,73.4,71.6,94,29.57,5.0,West,6.9,-,0.06,Rain,Heavy Rain,260,2013-06-27 23:36:00
7:54 PM,72.0,70.0,93,29.57,10.0,West,9.2,-,0.07,Rain,Light Rain,270,2013-06-27 23:54:00
8:20 PM,71.6,69.8,94,29.57,5.0,WNW,10.4,-,0.05,Rain,Heavy Rain,300,2013-06-28 00:20:00
8:52 PM,71.6,69.8,94,29.57,10.0,WNW,5.8,-,0.10,Rain,Light Rain,290,2013-06-28 00:52:00
8:54 PM,72.0,70.0,93,29.58,10.0,West,5.8,-,0.10,Rain,Light Rain,280,2013-06-28 00:54:00
9:22 PM,71.6,69.8,94,29.57,10.0,SW,5.8,-,0.00,,Mostly Cloudy,230,2013-06-28 01:22:00
9:34 PM,71.6,69.8,94,29.57,10.0,SW,3.5,-,0.00,,Scattered Clouds,220,2013-06-28 01:34:00
9:54 PM,71.1,69.1,93,29.60,10.0,SSW,4.6,-,0.00,,Partly Cloudy,200,2013-06-28 01:54:00
10:46 PM,71.6,69.8,94,29.59,10.0,Variable,5.8,-,N/A,,Overcast,0,2013-06-28 02:46:00
10:54 PM,72.0,70.0,93,29.59,10.0,SSW,5.8,-,N/A,,Mostly Cloudy,210,2013-06-28 02:54:00
11:11 PM,71.6,69.8,94,29.58,10.0,South,3.5,-,N/A,,Mostly Cloudy,170,2013-06-28 03:11:00
11:54 PM,73.0,70.0,90,29.57,10.0,SSW,9.2,-,N/A,,Overcast,210,2013-06-28 03:54:00